"Period start","avg(HW err(1)/warn(2) (#))","avg(Visibility (m))","avg(Weather code (#))","avg(Precip intensity (mm/h))","min(HW err(1)/warn(2) (#))","max(HW err(1)/warn(2) (#))","std(HW err(1)/warn(2) (#))","med(HW err(1)/warn(2) (#))","min(Visibility (m))","max(Visibility (m))","std(Visibility (m))","med(Visibility (m))","min(Weather code (#))","max(Weather code (#))","std(Weather code (#))","med(Weather code (#))","min(Precip intensity (mm/h))","max(Precip intensity (mm/h))","std(Precip intensity (mm/h))","med(Precip intensity (mm/h))"
2014-05-16 00:00:00,2,36012,0,0.00,2,2,0,2,28399,42167,5077,37126,0,0,0,0,0.00,0.00,0.00,0.00
2014-05-16 00:10:00,2,33025,0,0.00,2,2,0,2,24624,41081,4442,33364,0,0,0,0,0.00,0.00,0.00,0.00
2014-05-16 00:20:00,2,34824,0,0.00,2,2,0,2,19719,49484,8873,34252,0,0,0,0,0.00,0.00,0.00,0.00
2014-05-16 00:30:00,2,38036,0,0.00,2,2,0,2,26855,48666,6349,37804,0,0,0,0,0.00,0.00,0.00,0.00
2014-05-16 00:40:00,2,32881,0,0.00,2,2,0,2,23724,46461,7842,32022,0,0,0,0,0.00,0.00,0.00,0.00
2014-05-16 00:50:00,2,36064,0,0.00,2,2,0,2,26008,50000,7215,34896,0,0,0,0,0.00,0.00,0.00,0.00
2014-05-16 01:00:00,2,30747,0,0.00,2,2,0,2,21558,47547,7844,28418,0,0,0,0,0.00,0.00,0.00,0.00
2014-05-16 01:10:00,2,28317,0,0.00,2,2,0,2,18044,40590,7940,26325,0,0,0,0,0.00,0.00,0.00,0.00
2014-05-16 01:20:00,2,34355,0,0.00,2,2,0,2,19770,47318,8063,34506,0,0,0,0,0.00,0.00,0.00,0.00
2014-05-16 01:30:00,2,36750,0,0.00,2,2,0,2,29567,44113,4568,36940,0,0,0,0,0.00,0.00,0.00,0.00
2014-05-16 01:40:00,2,34062,0,0.00,2,2,0,2,22153,50000,7270,33048,0,0,0,0,0.00,0.00,0.00,0.00
2014-05-16 01:50:00,2,26178,0,0.00,2,2,0,2,19893,34434,4630,25940,0,0,0,0,0.00,0.00,0.00,0.00
2014-05-16 02:00:00,2,37056,0,0.00,2,2,0,2,29897,49651,5927,36698,0,0,0,0,0.00,0.00,0.00,0.00
2014-05-16 02:10:00,2,39227,0,0.00,2,2,0,2,26922,46120,5408,40741,0,0,0,0,0.00,0.00,0.00,0.00
2014-05-16 02:20:00,2,32075,0,0.00,2,2,0,2,24476,46366,5763,30898,0,0,0,0,0.00,0.00,0.00,0.00
2014-05-16 02:30:00,2,36655,0,0.00,2,2,0,2,22360,50000,9896,37775,0,0,0,0,0.00,0.00,0.00,0.00
2014-05-16 02:40:00,2,30858,0,0.00,2,2,0,2,20560,48425,8212,28796,0,0,0,0,0.00,0.00,0.00,0.00
2014-05-16 02:50:00,2,35282,0,0.00,2,2,0,2,26377,47020,6464,34286,0,0,0,0,0.00,0.00,0.00,0.00
2014-05-16 03:00:00,2,35225,0,0.00,2,2,0,2,24183,44630,6418,36550,0,0,0,0,0.00,0.00,0.00,0.00
2014-05-16 03:10:00,2,33295,0,0.00,2,2,0,2,21559,40867,5930,33342,0,0,0,0,0.00,0.00,0.00,0.00
2014-05-16 03:20:00,2,37841,0,0.00,2,2,0,2,26114,50000,6896,36702,0,0,0,0,0.00,0.00,0.00,0.00
2014-05-16 03:30:00,2,44581,0,0.00,2,2,0,2,31888,50000,5586,45759,0,0,0,0,0.00,0.00,0.00,0.00
2014-05-16 03:40:00,2,41229,0,0.00,2,2,0,2,27630,50000,7737,41408,0,0,0,0,0.00,0.00,0.00,0.00
2014-05-16 03:50:00,2,37857,0,0.00,2,2,0,2,29484,47790,6091,38126,0,0,0,0,0.00,0.00,0.00,0.00
2014-05-16 04:00:00,2,34319,0,0.00,2,2,0,2,25645,48205,6477,32604,0,0,0,0,0.00,0.00,0.00,0.00
2014-05-16 04:10:00,2,36968,0,0.00,2,2,0,2,25795,47466,6364,37528,0,0,0,0,0.00,0.00,0.00,0.00
2014-05-16 04:20:00,2,36946,0,0.00,2,2,0,2,30591,49448,5196,35106,0,0,0,0,0.00,0.00,0.00,0.00
2014-05-16 04:30:00,2,37754,0,0.00,2,2,0,2,26614,45804,6818,40864,0,0,0,0,0.00,0.00,0.00,0.00
2014-05-16 04:40:00,2,39464,0,0.00,2,2,0,2,28296,50000,8036,41378,0,0,0,0,0.00,0.00,0.00,0.00
2014-05-16 04:50:00,2,38390,0,0.00,2,2,0,2,29258,46531,5021,38098,0,0,0,0,0.00,0.00,0.00,0.00
2014-05-16 05:00:00,2,36175,0,0.00,2,2,0,2,27550,43544,5032,36294,0,0,0,0,0.00,0.00,0.00,0.00
2014-05-16 05:10:00,2,32390,0,0.00,2,2,0,2,28298,40780,3445,31210,0,0,0,0,0.00,0.00,0.00,0.00
2014-05-16 05:20:00,2,34747,0,0.00,2,2,0,2,24092,41437,4476,35218,0,0,0,0,0.00,0.00,0.00,0.00
2014-05-16 05:30:00,2,33689,0,0.00,2,2,0,2,26296,40910,4718,33254,0,0,0,0,0.00,0.00,0.00,0.00
2014-05-16 05:40:00,2,34094,0,0.00,2,2,0,2,26270,42548,5498,34240,0,0,0,0,0.00,0.00,0.00,0.00
2014-05-16 05:50:00,2,34482,0,0.00,2,2,0,2,29289,40351,3636,33620,0,0,0,0,0.00,0.00,0.00,0.00
2014-05-16 06:00:00,2,33026,0,0.00,2,2,0,2,30218,36886,1834,33030,0,0,0,0,0.00,0.00,0.00,0.00
2014-05-16 06:10:00,2,32275,0,0.00,2,2,0,2,22046,38559,5334,34074,0,0,0,0,0.00,0.00,0.00,0.00
2014-05-16 06:20:00,2,35347,0,0.00,2,2,0,2,29089,41071,3589,35726,0,0,0,0,0.00,0.00,0.00,0.00
2014-05-16 06:30:00,2,38195,0,0.00,2,2,0,2,27593,50000,7649,36159,0,0,0,0,0.00,0.00,0.00,0.00
2014-05-16 06:40:00,2,42087,0,0.00,2,2,0,2,26577,50000,6194,42224,0,0,0,0,0.00,0.00,0.00,0.00
2014-05-16 06:50:00,2,41248,0,0.00,2,2,0,2,30726,49285,6485,43114,0,0,0,0,0.00,0.00,0.00,0.00
2014-05-16 07:00:00,2,38514,0,0.00,2,2,0,2,34762,42193,2192,38820,0,0,0,0,0.00,0.00,0.00,0.00
2014-05-16 07:10:00,2,38738,0,0.00,2,2,0,2,33224,49136,4924,37830,0,0,0,0,0.00,0.00,0.00,0.00
2014-05-16 07:20:00,2,42002,0,0.00,2,2,0,2,35360,47212,3713,40783,0,0,0,0,0.00,0.00,0.00,0.00
2014-05-16 07:30:00,2,42646,0,0.00,2,2,0,2,34122,48952,3941,43350,0,0,0,0,0.00,0.00,0.00,0.00
2014-05-16 07:40:00,2,42504,0,0.00,2,2,0,2,32084,47269,4811,44174,0,0,0,0,0.00,0.00,0.00,0.00
2014-05-16 07:50:00,2,40704,0,0.00,2,2,0,2,30774,49493,5649,39496,0,0,0,0,0.00,0.00,0.00,0.00
2014-05-16 08:00:00,2,40313,0,0.00,2,2,0,2,31009,50000,5882,39182,0,0,0,0,0.00,0.00,0.00,0.00
2014-05-16 08:10:00,2,38465,0,0.00,2,2,0,2,29520,45351,4235,39054,0,0,0,0,0.00,0.00,0.00,0.00
2014-05-16 08:20:00,2,41966,0,0.00,2,2,0,2,35658,47823,3536,42232,0,0,0,0,0.00,0.00,0.00,0.00
2014-05-16 08:30:00,2,40444,0,0.00,2,2,0,2,35438,47010,3550,41364,0,0,0,0,0.00,0.00,0.00,0.00
2014-05-16 08:40:00,2,25381,47,0.08,2,2,0,2,15994,34246,5808,25514,41,61,9,41,0.00,0.20,0.06,0.10
2014-05-16 08:50:00,2,44349,18,0.02,2,2,0,2,35861,50000,4251,44174,0,61,28,0,0.00,0.10,0.03,0.00
2014-05-16 09:00:00,2,43877,0,0.00,2,2,0,2,31081,50000,6403,46165,0,0,0,0,0.00,0.00,0.00,0.00
2014-05-16 09:10:00,2,34897,46,0.07,2,2,0,2,29026,45702,4975,33866,0,61,23,56,0.00,0.30,0.10,0.05
2014-05-16 09:20:00,2,28087,56,0.34,2,2,0,2,22849,35010,3754,27073,51,61,5,56,0.10,0.80,0.20,0.35
2014-05-16 09:30:00,2,14906,61,0.69,2,2,0,2,10145,20729,4010,13865,61,61,0,61,0.15,1.25,0.33,0.75
2014-05-16 09:40:00,2,8728,73,0.74,2,2,0,2,7939,9512,572,8752,71,74,1,74,0.20,1.60,0.42,0.65
2014-05-16 09:50:00,2,8638,72,0.88,2,2,0,2,7543,9723,756,8484,67,74,3,74,0.45,1.75,0.38,0.73
2014-05-16 10:00:00,2,9192,73,0.86,2,2,0,2,8257,9971,583,9187,71,74,1,74,0.35,1.55,0.39,0.85
2014-05-16 10:10:00,2,13862,67,0.52,2,2,0,2,9645,16697,2312,14366,61,74,5,71,0.10,2.00,0.52,0.35
2014-05-16 10:20:00,2,16260,61,0.53,2,2,0,2,12596,18691,1686,16556,61,61,0,61,0.05,1.20,0.41,0.40
2014-05-16 10:30:00,2,18380,59,0.27,2,2,0,2,15309,22699,1942,17902,51,61,4,61,0.05,0.60,0.19,0.20
2014-05-16 10:40:00,2,17241,59,0.78,2,2,0,2,9999,26911,5238,16600,51,67,5,61,0.25,1.85,0.52,0.65
2014-05-16 10:50:00,2,19458,63,0.14,2,2,0,2,14051,24389,2927,20017,61,67,3,61,0.05,0.50,0.15,0.05
2014-05-16 11:00:00,2,22224,51,0.05,2,2,0,2,18290,27893,2738,21856,51,51,0,51,0.00,0.15,0.05,0.05
2014-05-16 11:10:00,2,19446,51,0.27,2,2,0,2,16154,23008,2450,19250,51,51,0,51,0.00,0.60,0.22,0.20
2014-05-16 11:20:00,2,16884,51,0.77,2,2,0,2,14840,19850,1466,16514,51,52,0,51,0.25,1.70,0.52,0.65
2014-05-16 11:30:00,2,16837,51,0.28,2,2,0,2,14229,19000,1207,16773,51,51,0,51,0.10,0.75,0.17,0.28
2014-05-16 11:40:00,2,18520,51,0.11,2,2,0,2,14465,21131,2065,19344,51,51,0,51,0.00,0.30,0.10,0.10
2014-05-16 11:50:00,2,19968,51,0.05,2,2,0,2,18834,23297,1280,19677,51,51,0,51,0.00,0.20,0.06,0.05
2014-05-16 12:00:00,2,18008,51,0.18,2,2,0,2,16550,19700,1093,18168,51,51,0,51,0.00,0.45,0.16,0.10
2014-05-16 12:10:00,2,17944,51,0.14,2,2,0,2,15942,22144,1647,17728,51,51,0,51,0.00,0.45,0.13,0.10
2014-05-16 12:20:00,2,18578,51,0.14,2,2,0,2,16785,21291,1415,18480,51,51,0,51,0.05,0.30,0.09,0.12
2014-05-16 12:30:00,2,18427,51,0.07,2,2,0,2,16399,20374,1268,18460,51,51,0,51,0.00,0.15,0.06,0.05
2014-05-16 12:40:00,2,20969,15,0.01,2,2,0,2,17845,22931,1442,21276,0,51,23,0,0.00,0.10,0.03,0.00
2014-05-16 12:50:00,2,23115,0,0.00,2,2,0,2,20356,25975,1999,23464,0,0,0,0,0.00,0.00,0.00,0.00
2014-05-16 13:00:00,2,20230,0,0.00,2,2,0,2,17749,25679,2195,19734,0,0,0,0,0.00,0.00,0.00,0.00
2014-05-16 13:10:00,2,20326,0,0.00,2,2,0,2,18723,22661,1604,19392,0,0,0,0,0.00,0.00,0.00,0.00
2014-05-16 13:20:00,2,21952,0,0.00,2,2,0,2,19141,26722,2270,21698,0,0,0,0,0.00,0.00,0.00,0.00
2014-05-16 13:30:00,2,23805,0,0.00,2,2,0,2,22116,25080,1156,24068,0,0,0,0,0.00,0.00,0.00,0.00
2014-05-16 13:40:00,2,22873,0,0.00,2,2,0,2,19370,26031,1874,22374,0,0,0,0,0.00,0.00,0.00,0.00
2014-05-16 13:50:00,2,22976,0,0.00,2,2,0,2,21296,26564,1513,22550,0,0,0,0,0.00,0.00,0.00,0.00
2014-05-16 14:00:00,2,25641,0,0.00,2,2,0,2,22685,31358,2720,24876,0,0,0,0,0.00,0.00,0.00,0.00
2014-05-16 14:10:00,2,27076,0,0.00,2,2,0,2,23181,32821,2617,26952,0,0,0,0,0.00,0.00,0.00,0.00
2014-05-16 14:20:00,2,30488,0,0.00,2,2,0,2,25419,39390,4066,31032,0,0,0,0,0.00,0.00,0.00,0.00
2014-05-16 14:30:00,2,34442,0,0.00,2,2,0,2,30438,39458,2664,34408,0,0,0,0,0.00,0.00,0.00,0.00
2014-05-16 14:40:00,2,32069,0,0.00,2,2,0,2,26381,35060,2607,33094,0,0,0,0,0.00,0.00,0.00,0.00
2014-05-16 14:50:00,2,30809,0,0.00,2,2,0,2,27317,37157,3272,29558,0,0,0,0,0.00,0.00,0.00,0.00
2014-05-16 15:00:00,2,28776,0,0.00,2,2,0,2,24922,32753,2160,28550,0,0,0,0,0.00,0.00,0.00,0.00
2014-05-16 15:10:00,2,28284,0,0.00,2,2,0,2,24840,32279,2576,27578,0,0,0,0,0.00,0.00,0.00,0.00
2014-05-16 15:20:00,2,31910,0,0.00,2,2,0,2,29828,36404,1972,31505,0,0,0,0,0.00,0.00,0.00,0.00
2014-05-16 15:30:00,2,30953,0,0.00,2,2,0,2,24265,38680,4053,30366,0,0,0,0,0.00,0.00,0.00,0.00
2014-05-16 15:40:00,2,28088,0,0.00,2,2,0,2,24601,33476,2845,27040,0,0,0,0,0.00,0.00,0.00,0.00
2014-05-16 15:50:00,2,28376,0,0.00,2,2,0,2,24565,31283,1991,28973,0,0,0,0,0.00,0.00,0.00,0.00
2014-05-16 16:00:00,2,25863,0,0.00,2,2,0,2,22256,29699,2473,25708,0,0,0,0,0.00,0.00,0.00,0.00
2014-05-16 16:10:00,2,23692,0,0.00,2,2,0,2,22407,25338,903,23612,0,0,0,0,0.00,0.00,0.00,0.00
2014-05-16 16:20:00,2,22752,0,0.00,2,2,0,2,17459,25320,2110,23434,0,0,0,0,0.00,0.00,0.00,0.00
2014-05-16 16:30:00,2,19511,16,0.04,2,2,0,2,15640,23160,2282,19134,0,41,20,0,0.00,0.20,0.07,0.00
2014-05-16 16:40:00,2,15242,51,0.21,2,2,0,2,12489,17460,1782,15836,41,61,6,51,0.10,0.35,0.08,0.20
2014-05-16 16:50:00,2,18399,51,0.18,2,2,0,2,16701,21145,1405,18112,51,51,0,51,0.10,0.35,0.09,0.15
2014-05-16 17:00:00,2,16399,51,0.47,2,2,0,2,14324,19871,1608,15992,51,52,0,51,0.25,0.80,0.16,0.47
2014-05-16 17:10:00,2,14450,56,0.95,2,2,0,2,13168,15909,804,14494,52,61,4,52,0.40,1.65,0.37,0.97
2014-05-16 17:20:00,2,16723,51,0.44,2,2,0,2,15414,18025,824,16734,51,51,0,51,0.20,0.95,0.23,0.38
2014-05-16 17:30:00,2,16957,51,0.24,2,2,0,2,15294,18289,893,16989,51,51,0,51,0.10,0.45,0.12,0.20
2014-05-16 17:40:00,2,18245,51,0.16,2,2,0,2,14808,22853,2001,18302,51,51,0,51,0.05,0.30,0.08,0.15
2014-05-16 17:50:00,2,18731,51,0.05,2,2,0,2,17071,21064,1090,18666,51,51,0,51,0.00,0.10,0.04,0.05
2014-05-16 18:00:00,2,14175,51,0.47,2,2,0,2,12241,15931,1207,14222,51,52,0,51,0.25,0.95,0.23,0.35
2014-05-16 18:10:00,2,16099,51,0.35,2,2,0,2,12511,18733,1743,16244,51,51,0,51,0.10,0.70,0.16,0.33
2014-05-16 18:20:00,2,17250,51,0.31,2,2,0,2,15798,18949,863,17462,51,51,0,51,0.10,0.75,0.17,0.28
2014-05-16 18:30:00,2,13904,58,0.71,2,2,0,2,11332,16410,1648,13828,51,61,5,61,0.25,1.25,0.37,0.62
2014-05-16 18:40:00,2,11995,52,1.01,2,2,0,2,9935,14364,1482,11518,52,52,0,52,0.40,1.75,0.42,1.02
2014-05-16 18:50:00,2,18571,51,0.35,2,2,0,2,11813,26745,4484,18349,51,52,0,51,0.05,1.20,0.37,0.17
2014-05-16 19:00:00,2,28560,51,0.04,2,2,0,2,21391,36024,3941,28603,51,51,0,51,0.00,0.15,0.05,0.03
2014-05-16 19:10:00,2,28030,11,0.01,2,2,0,2,24178,34739,3635,26022,0,61,23,0,0.00,0.10,0.03,0.00
2014-05-16 19:20:00,2,26994,54,0.16,2,2,0,2,19034,33531,4367,27781,51,61,5,51,0.00,0.35,0.13,0.15
2014-05-16 19:30:00,2,28199,46,0.30,2,2,0,2,24571,31819,2423,28083,0,51,15,51,0.00,0.70,0.25,0.28
2014-05-16 19:40:00,2,29014,40,0.08,2,2,0,2,25835,34158,2648,28692,0,61,26,51,0.00,0.20,0.08,0.10
2014-05-16 19:50:00,2,34470,10,0.00,2,2,0,2,32288,38678,1797,34072,0,51,20,0,0.00,0.00,0.00,0.00
2014-05-16 20:00:00,2,31174,0,0.00,2,2,0,2,26563,33765,1932,31326,0,0,0,0,0.00,0.00,0.00,0.00
2014-05-16 20:10:00,2,32079,0,0.00,2,2,0,2,28440,36036,2677,31400,0,0,0,0,0.00,0.00,0.00,0.00
2014-05-16 20:20:00,2,33536,0,0.00,2,2,0,2,30089,40186,2907,33632,0,0,0,0,0.00,0.00,0.00,0.00
2014-05-16 20:30:00,2,30579,41,0.07,2,2,0,2,21814,40910,5890,30330,0,61,16,41,0.00,0.25,0.08,0.05
2014-05-16 20:40:00,2,25755,49,0.05,2,2,0,2,19752,32439,3829,24564,41,61,7,51,0.00,0.15,0.07,0.00
2014-05-16 20:50:00,2,26232,49,0.05,2,2,0,2,19277,37207,5488,25014,41,61,7,51,0.00,0.20,0.06,0.03
2014-05-16 21:00:00,2,31269,47,0.03,2,2,0,2,24904,38273,4310,31096,0,61,17,51,0.00,0.20,0.07,0.00
2014-05-16 21:10:00,2,31526,0,0.00,2,2,0,2,28537,38425,2738,30742,0,0,0,0,0.00,0.00,0.00,0.00
2014-05-16 21:20:00,2,38038,0,0.00,2,2,0,2,29592,50000,8430,32922,0,0,0,0,0.00,0.00,0.00,0.00
2014-05-16 21:30:00,2,44007,0,0.00,2,2,0,2,35383,50000,6899,48837,0,0,0,0,0.00,0.00,0.00,0.00
2014-05-16 21:40:00,2,40331,16,0.03,2,2,0,2,32413,50000,5993,41062,0,41,20,0,0.00,0.25,0.07,0.00
2014-05-16 21:50:00,2,45801,41,0.06,2,2,0,2,38502,50000,3695,46012,41,41,0,41,0.00,0.15,0.06,0.05
2014-05-16 22:00:00,2,38630,41,0.07,2,2,0,2,33192,42621,3175,39402,41,41,0,41,0.00,0.20,0.06,0.05
2014-05-16 22:10:00,2,30235,48,0.15,2,2,0,2,19808,38824,6100,30984,41,61,8,46,0.05,0.35,0.10,0.10
2014-05-16 22:20:00,2,47767,12,0.01,2,2,0,2,44073,50000,2099,48172,0,41,19,0,0.00,0.05,0.02,0.00
2014-05-16 22:30:00,2,45374,0,0.00,2,2,0,2,35453,50000,4082,46220,0,0,0,0,0.00,0.00,0.00,0.00
2014-05-16 22:40:00,2,48920,0,0.00,2,2,0,2,43530,50000,2097,50000,0,0,0,0,0.00,0.00,0.00,0.00
2014-05-16 22:50:00,2,49048,0,0.00,2,2,0,2,46741,50000,1310,50000,0,0,0,0,0.00,0.00,0.00,0.00
2014-05-16 23:00:00,2,46390,0,0.00,2,2,0,2,40928,50000,3265,46778,0,0,0,0,0.00,0.00,0.00,0.00
2014-05-16 23:10:00,2,45346,0,0.00,2,2,0,2,39718,50000,3960,45706,0,0,0,0,0.00,0.00,0.00,0.00
2014-05-16 23:20:00,2,49750,0,0.00,2,2,0,2,47496,50000,751,50000,0,0,0,0,0.00,0.00,0.00,0.00
2014-05-16 23:30:00,2,48826,0,0.00,2,2,0,2,46635,50000,1295,49298,0,0,0,0,0.00,0.00,0.00,0.00
2014-05-16 23:40:00,2,45569,0,0.00,2,2,0,2,33212,50000,5314,48416,0,0,0,0,0.00,0.00,0.00,0.00
2014-05-16 23:50:00,2,47053,0,0.00,2,2,0,2,42281,50000,2594,47658,0,0,0,0,0.00,0.00,0.00,0.00
